User: anonymous   Login
Location: Caltech
(34.1382°N, 118.1253°W)
Time: 17:09:12
(UTC-07:00)
Language:

Iridium 94 - Orbit

View from above orbital plane
View from above orbital plane
View from above satellite
View from above satellite

Ground track
Ground track

The orbit data is extracted from the following two-line orbital elements,

1 27374U 02005C   15185.41859685 -.00000013  00000-0 -11740-4 0  9999
2 27374 086.3969 194.0742 0001303 122.2446 352.4948 14.34215918713645
Epoch (UTC): 04 July 2015 10:02:46
Eccentricity: 0.0001303
inclination: 86.3969°
perigee height: 777 km
apogee height: 778 km
right ascension of ascending node: 194.0742°
argument of perigee: 122.2446°
revolutions per day: 14.34215918
mean anomaly at epoch: 352.4948°
orbit number at epoch: 71364

The dashed part of the orbit path shows where the satellite is in the earth's shadow,  

DLR